Tracking 35274 objects as of 11-Sep-2026
HD Live streaming from Space Station
objects crossing your sky now

STARLINK-3992

Track STARLINK-3992 now!
10-day predictions
STARLINK-3992 is classified as:


NORAD ID: 52627
Int'l Code: 2022-052AF
Launch date: May 14, 2022
Source: United States (US)
Launch site: AIR FORCE EASTERN TEST RANGE (AFETR)
Your satellite tracking list
Your tracking list is empty




NASA's NSSDC Master Catalog

Two Line Element Set (TLE):
1 52627U 22052AF  26253.63079553  .00000298  00000-0  19464-4 0  9996
2 52627  53.1584 148.8809 0001312  89.9858 270.1295 15.35394627239052
Source of the keplerian elements: AFSPC